ONEWEB-0312 (49098 NORAD) Tracking and Keplerian Element Data

This shows tracking and keplerian element data for the satellite.

Feedback or suggestion? Click here.




ElementValue
Catalog49098
NameONEWEB-0312
Epoch Orbit352
Epoch Day300.58334491
Epoch Year2021
RAAN344.3832
Inclination87.5456
Eccentricity0.0023865
Argument of Perigee68.3241
Mean Anonmoly181.8655
Mean Motion14.32031463
Decay Rate-0.0134191
L11 49098U 21075Z 21300.58334491 -.01341910 00000-0 -53716+0 0 9990
L22 49098 87.5456 344.3832 0023865 68.3241 181.8655 14.32031463 3523

Live tracking and technical data element details for ONEWEB-0312 (NORAD 49098). ONEWEB-0312 can be tracked NOW for your location showing map with azimuth and elevation plus other details from your city location.

Track the satellite on the map from your city or location and see movement details for azimuth, elevation, latitude, longitude, range, height, and movement on the map or in text.







IsCatalogInMostPopularTable: catalog: 49098, numindb: 12
Update: records affected: 1



GetName: 49098 ONEWEB-0312

Hit Count: updated at: Thu, 28 Oct 2021 11:00:50 GMT